Location: Clarks Summit,Pa.
(41.5000°N, 75.6000°W)
Time: 03:17:15
(UTC-05:00)

Envisat - Pass Details

Date: 04 December 2021
Orbit: 764 x 766 km, 98.2° (Epoch: 18 January)

Event Time Altitude Azimuth Distance (km) Brightness Sun altitude
Rises 03:54:19 0° 29° (NNE) 3,240 6.6 -36.4°
Reaches altitude 10° 03:57:18 10° 47° (NE) 2,308 5.9 -35.8°
Maximum altitude 04:00:51 19° 92° (E) 1,767 5.5 -35.2°
Drops below altitude 10° 04:04:23 10° 136° (SE) 2,296 5.9 -34.5°
Sets 04:07:20 0° 154° (SSE) 3,216 6.5 -34.0°
